Regional Weather Roundup
Issued by NWS

Home | Current Version | Previous Version | Text Only | Print | Product List | Glossary On
Versions: 1 2 3 4 5 6 7 8 9 10 11 12 13 14 15 16 17 18 19 20 21 22 23 24 25 26 27 28 29 30 31 32 33 34 35 36 37 38 39 40 41 42 43 44 45 46 47 48 49 50
000
ASUS44 KBMX 280610
RWRAL

ALABAMA REGIONAL WEATHER ROUNDUP
NATIONAL WEATHER SERVICE BIRMINGHAM AL
1200 AM CST FRI NOV 28 2014

NOTE: "FAIR" INDICATES FEW OR NO CLOUDS BELOW 12,000 FEET
WITH NO SIGNIFICANT WEATHER AND/OR OBSTRUCTIONS TO VISIBILITY.

THE REMARK "TC" DENOTES TEMPERATURE IN DEGREES CELSIUS.

ALZ001>011-014-016>018-020-280700-
NORTH ALABAMA

CITY           SKY/WX    TMP DP  RH WIND       PRES   REMARKS
MUSCLE SHOALS  CLEAR     31  23  72 CALM      30.47F
6HR MIN TEMP:  30; 6HR MAX TEMP:  38;

HUNTSVILLE     PTCLDY    31  24  75 NE3       30.44F
6HR MIN TEMP:  31; 6HR MAX TEMP:  40;

DECATUR        CLEAR     28  23  81 N5        30.46F WCI  23
6HR MIN TEMP:  28; 6HR MAX TEMP:  37;

HALEYVILLE     FAIR      27  23  84 CALM      30.45F
6HR MIN TEMP:  26; 6HR MAX TEMP:  35;

GADSDEN        CLEAR     28  21  74 CALM      30.43S
6HR MIN TEMP:  28; 6HR MAX TEMP:  39;

$$

ALZ012-013-022-023-030>036-040>044-280700-
WEST CENTRAL ALABAMA

CITY           SKY/WX    TMP DP  RH WIND       PRES   REMARKS
TUSCALOOSA     CLEAR     32  27  81 CALM      30.46F
6HR MIN TEMP:  30; 6HR MAX TEMP:  40;

$$

ALZ015-024>027-033>036-040>044-280700-
CENTRAL ALABAMA

CITY           SKY/WX    TMP DP  RH WIND       PRES   REMARKS
BIRMINGHAM     CLEAR     33  26  75 CALM      30.44F
6HR MIN TEMP:  31; 6HR MAX TEMP:  40;

MONTGOMERY     CLEAR     36  29  75 NW8       30.45S WCI  30
6HR MIN TEMP:  35; 6HR MAX TEMP:  45;

SHELBY CO ARPT CLEAR     34  28  79 N3        30.43F
6HR MIN TEMP:  34; 6HR MAX TEMP:  43;

MAXWELL AFB    CLEAR     37  31  79 NW6       30.44F WCI  32
6HR MIN TEMP:  36; 6HR MAX TEMP:  43;

GREENVILLE     FAIR      37  29  72 N8        30.42  WCI  31
6HR MIN TEMP:  36; 6HR MAX TEMP:  46;

$$

ALZ019-021-028-029-037-038-045>048-280700-
EAST CENTRAL ALABAMA

CITY           SKY/WX    TMP DP  RH WIND       PRES   REMARKS
ANNISTON       CLEAR     31  25  78 W5        30.42F WCI  26
6HR MIN TEMP:  30; 6HR MAX TEMP:  41;

ALEXANDER CITY CLEAR     29  25  83 CALM      30.42F
6HR MIN TEMP:  29; 6HR MAX TEMP:  42;

AUBURN         CLEAR     32  25  74 NW6       30.43S WCI  26
6HR MIN TEMP:  30; 6HR MAX TEMP:  39;

$$

ALZ051>064-280700-
SOUTHWEST ALABAMA

CITY           SKY/WX    TMP DP  RH WIND       PRES   REMARKS
MOBILE         CLEAR     37  32  82 N6        30.44S WCI  32
6HR MIN TEMP:  37; 6HR MAX TEMP:  46;

BROOKLEY FIELD CLEAR     43  33  68 N12       30.45S
6HR MIN TEMP:  43; 6HR MAX TEMP:  50;

EVERGREEN      CLEAR     34  30  85 CALM      30.44S
6HR MIN TEMP:  34; 6HR MAX TEMP:  47;

$$

ALZ049-050-065>069-280700-
SOUTHEAST ALABAMA

CITY           SKY/WX    TMP DP  RH WIND       PRES   REMARKS
DOTHAN         CLEAR     37  31  78 NW6       30.44F WCI  32
6HR MIN TEMP:  36; 6HR MAX TEMP:  47;

OZARK          CLEAR     37  29  73 NW6       30.41F WCI  33
6HR MIN TEMP:  37; 6HR MAX TEMP:  47;

TROY           CLEAR     35  29  78 NW6       30.43S WCI  30
6HR MIN TEMP:  35; 6HR MAX TEMP:  43;

EUFAULA        FAIR      35  29  78 NW3       30.40F
6HR MIN TEMP:  33; 6HR MAX TEMP:  44; 6HR PCP: TRACE;

$$


USA.gov is the U.S. government's official web portal to all federal, state and local government web resources and services.